CZ-6A DEB, 60963

Orbit data source: Space-Track

CZ-6A DEB, 60963 is space debris in LEO originally from a launch on Tue, 06 Aug 2024 UTC launched from the Taiyaun Space Center, China (TSC). Debris objects in space refer to the collection of defunct objects orbiting the Earth. Examples of debris include non-operational satellites, rocket bodies, and fragments generated from explosions, collisions, or faulty payload assembly.

Loading next visibility...
Identifier
60963, 2024-140LN
Orbit
LEO
Country
Flag of CNCN / PRC
Related business
Manufacturer
SAST
Mission
Spacecraft
Bus & Motor
Unknown
Mass
Unknown
Launch date (UTC)
2024-08-06 (1 year ago)
Launch vehicle
Unknown
Launch site
Taiyaun Space Center, China (TSC)
Object type
Payload
Rocket body
Debris
Shape & HBR
Unknown shape, 0.2 m
Radar Cross Section
Small (<0.1 m²)

Expand to show TLE details & history
Last TLE update: 6 hours ago

TLE from 6 hours ago
0 CZ-6A DEB
1 60963U 24140LN  25349.89130883  .00000677  00000-0  15148-3 0  9990
2 60963  89.0216 293.6765 0107065 173.7311 186.5267 14.51935921 71027
Epoch: 2025-12-15T21:23Z
TLE epoch observation values (Epoch: 2025-12-15T21:23:29.082Z)
Latitude
-0.00004°
Longitude
-111.97805°
Altitude
797.956 km
Speed
7.415 km/s
True Right ascension
19h 34m 42s
True Declination
0° 00' 00"
Sunlit
Object was in daylight at epoch
Visualization orbit readout
Latitude
Unknown
Longitude
Unknown
Altitude
Unknown
Speed
Unknown
Apparent Right ascension
Unknown
Apparent Declination
Unknown
Sunlit
N/A
Visualization observer readout
Local Sidereal Time
02:27:11
Azimuth
Unknown
Elevation
Unknown
Doppler factor
Unknown
Orbital elements
Apogee altitude
792.193 km
Perigee altitude
640.282 km
Semi-major axis
7,094.375 km
Eccentricity
0.01071
Inclination
89.0216°
RAAN
293.6765°
Arg. of periapsis
173.7311°
True anomaly
186.38908°
Mean anomaly
186.5267°
Eccentric anomaly
186.45771°
Mean motion
3.63222 °/min
Orbital period
99.11 mins
BSTAR
0.00015148
Loading maneuver chart data...
Computing Atmospheric mass density...
Loading historical data...
Loading historical data...
Loading historical data...
Loading historical data...
Loading historical data...
Loading historical data...
Loading historical data...

Documentation

Showing up to 5 results
|